STARLINK-36570, 67640

Orbit data source: Space-Track

STARLINK-36570, 67640 is a payload satellite owned by SpaceX/Seattle (US) in LEO that was launched on Fri, 30 Jan 2026 UTC via an FALCON 9 launch vehicle from the Air Force Eastern Test Range (AFETR). Payload-class satellites include a variety of spacecraft equipped with specific instruments for various scientific and technological missions. These include communications satellites like Starlink; space stations such as the ISS; scientific satellites like the Hubble; Earth observation satellites from companies like Planet Labs, Umbra, and HawkEye 360; GPS; miniature CubeSats for education and research; and military/defense satellites.

Loading next visibility...
Identifier
67640, 2026-020Z
Orbit
LEO
Country
Flag of USUS
Related business
Manufacturer
SpaceX/Seattle
Mission
Operational Commercial Communications
Bus & Motor
STARLINK V2MO, Unknown motor
Mass
575 kg wet, ~530 kg dry
Launch date (UTC)
2026-01-30 (3 months ago)
Launch vehicle
FALCON 9
Launch site
Air Force Eastern Test Range (AFETR)
Object type
Payload
Rocket body
Debris
Shape & HBR
Box + 2 Pan, 17.7 m
Radar Cross Section
36.964 m²

Expand to show TLE details & history
Last TLE update: 10 hours ago

TLE from 10 hours ago
0 STARLINK-36570
1 67640U 26020Z   26112.09076668  .00023678  00000-0  86722-3 0  9991
2 67640  42.9991 254.4546 0000806 306.7285  53.3493 15.27579833 12756
Epoch: 2026-04-22T02:10Z
TLE epoch observation values (Epoch: 2026-04-22T02:10:42.241Z)
Latitude
0.00003°
Longitude
11.62145°
Altitude
482.495 km
Speed
7.626 km/s
True Right ascension
16h 57m 49s
True Declination
0° 00' 00"
Sunlit
Object was in full shadow at epoch
Visualization orbit readout
Latitude
Unknown
Longitude
Unknown
Altitude
Unknown
Speed
Unknown
Apparent Right ascension
Unknown
Apparent Declination
Unknown
Sunlit
N/A
Visualization observer readout
Local Sidereal Time
19:12:53
Azimuth
Unknown
Elevation
Unknown
Doppler factor
Unknown
Orbital elements
Apogee altitude
485.548 km
Perigee altitude
484.442 km
Semi-major axis
6,863.132 km
Eccentricity
0.00008
Inclination
42.9991°
RAAN
254.4546°
Arg. of periapsis
306.7285°
True anomaly
53.35671°
Mean anomaly
53.3493°
Eccentric anomaly
53.35301°
Mean motion
3.81733 °/min
Orbital period
94.31 mins
BSTAR
0.00086722
Loading maneuver chart data...
Computing Atmospheric mass density...
Loading historical data...
Loading historical data...
Loading historical data...
Loading historical data...
Loading historical data...
Loading historical data...
Loading historical data...

Documentation

Showing up to 5 results
|